[[{"header":{"parameterUnit":"m.s-1","parameterCategory":1,"la1":30.2991,"la2":30.254,"lo1":-89.0895,"lo2":-89.0444,"dy":0.0017,"dx":0.0017,"nx":28,"ny":28,"refTime":"2026-03-04T09:00:00:Z","depth":0,"parameterNumber":2,"parameterNumberName":"U-component_of_WINDS"},"data":[0,0,0,0,0,0,0,0,0,0,0,0,0,0,0,0,0,0,0,0,0,0,0,0,0,0,0,0,0,0,0,0,0,0,0,0,0,0,0,0,0,0,0,0,0,0,0,0,0,0,0,0,0,0,0,0,0,0,-5.9945,-5.9945,0,-5.9999,-5.9999,-6.0,-5.9927,-5.9925,-5.9922,-5.9919,-5.9973,-5.9977,-5.998,0,0,0,0,0,0,0,0,0,0,0,0,0,-5.9779,-5.9783,-5.9945,-5.9945,-5.9946,-5.9999,-5.9999,-6.0,-5.9928,-5.9924,-5.9921,-5.9918,-5.9972,-5.9976,-5.9981,0,0,0,0,0,0,0,0,0,0,0,0,0,-5.9844,-5.9784,-5.9944,-5.9916,-5.9914,-5.9998,-5.9999,-6.0,-5.9928,-5.9924,-5.992,-5.9917,-5.997,-5.9976,-5.9981,-6.0095,0,0,-5.9999,-6.0002,0,0,0,0,0,0,0,0,-5.984,-5.985,-5.992,-5.9918,-5.9916,-5.9952,-5.996,-6.0032,-5.9929,-5.9923,-5.9919,-5.9915,-5.9969,-5.9975,-5.9993,-6.0098,-6.01,-6.0,-6.0003,-6.0006,-6.0007,0,0,0,0,0,0,0,-5.9836,-5.9847,-5.9966,-5.9921,-5.9919,-5.9901,-5.9906,-5.9974,-5.9967,-5.9923,-5.9918,-5.9926,-5.9967,-5.9988,-5.9994,-6.0101,-5.9999,-6.0004,-6.0008,-6.001,-6.0303,-6.0307,0,0,0,0,0,0,-5.9835,-5.9844,-5.9964,-5.9967,-5.9868,-5.9907,-5.9913,-5.9945,-5.9966,-5.9966,-5.9929,-5.9922,-5.998,-5.9987,-5.9996,-6.013,-6.0005,-6.0011,-6.0014,-6.0299,-6.0304,-6.0308,0,0,0,0,0,0,-5.9832,-5.9846,-5.9962,-5.9904,-5.9918,-5.9914,-5.9951,-5.9948,-5.9968,-5.9971,-5.9969,-5.9951,-5.9977,-5.9987,-6.0071,-6.0131,-6.0013,-6.0019,-6.0293,-6.03,-6.0306,-6.04,0,0,0,0,0,0,-5.9827,-5.9845,-5.9888,-5.9906,-5.9921,-6.0037,-5.9954,-5.9952,-5.9978,-5.997,-5.9991,-5.999,-5.9975,-6.0063,-6.0077,-6.0137,-6.0023,-6.0288,-6.0296,-6.0304,-6.0392,-6.0409,-6.0424,0,0,0,0,0,-5.9821,-5.9912,-5.9891,-5.9906,-5.9975,-6.004,-6.0049,-6.003,-5.9984,-6.0027,-6.0029,-5.999,-6.0123,-6.0072,-6.0087,-6.015,-6.0284,-6.0294,-6.0303,-6.0384,-6.0406,-6.0423,0,0,0,0,0,0,-5.9899,-5.9913,-5.989,-5.9989,-6.0014,-6.0028,-6.0081,-6.0053,-6.0091,-6.0081,-6.0055,-6.0061,-6.015,-6.0159,-6.0102,-6.0262,-6.0196,-6.0209,-6.0252,-6.0272,-6.0288,-6.0283,-6.0028,0,0,0,0,0,-5.9929,-5.9981,-5.999,-6.0077,-6.0091,-6.0085,-6.0112,-6.0096,-6.0121,-6.013,-6.0138,-6.0164,-6.0211,-6.0243,-6.0287,-6.0394,-6.0397,-6.0445,-6.0461,-6.0474,-6.0485,-6.0542,-6.0563,-6.034,-6.034,-6.034,0,0,-5.9988,-6.0002,-6.0037,-6.0093,-6.011,-6.0165,-6.0094,-6.0154,-6.0195,-6.0139,-6.0219,-6.0227,-6.0253,-6.035,-6.0392,-6.0359,-6.0548,-6.0486,-6.0497,-6.05,-6.0555,-6.0576,-6.0594,-6.0347,-6.0346,-6.0345,0,0,-6.0124,-6.0141,-6.0215,-6.0235,-6.0263,-6.0259,-6.0277,-6.0296,-6.0299,-6.038,-6.034,-6.0388,-6.0471,-6.0491,-6.0513,-6.0662,-6.0627,-6.0677,-6.076,-6.0817,-6.0834,-6.085,-6.0902,-6.0921,-6.0689,-6.0689,-6.0689,0,-6.0194,-6.0275,-6.0256,-6.032,-6.0346,-6.0302,-6.0376,-6.0397,-6.0438,-6.0457,-6.042,-6.0524,-6.0539,-6.064,-6.0677,-6.0696,-6.0716,-6.0673,-6.0834,-6.0849,-6.0863,-6.0912,-6.0932,-6.0695,-6.0694,-6.0693,-6.0693,0,-6.036,-6.0417,-6.0473,-6.0516,-6.0549,-6.0618,-6.061,-6.0646,-6.0628,-6.0628,-6.0711,-6.0728,-6.0775,-6.0799,-6.0781,-6.0898,-6.0877,-6.0838,-6.077,-6.089,-6.0936,-6.0955,-6.0703,-6.0701,-6.0699,-6.0698,0,0,-6.0541,-6.0575,-6.0596,-6.0615,-6.0646,-6.0689,-6.0758,-6.0805,-6.0836,-6.0868,-6.0924,-6.0997,-6.0962,-6.0987,-6.0972,-6.1022,-6.1139,-6.0977,-6.0977,-6.1005,-6.1268,-6.1295,-6.1317,-6.1118,-6.1122,-6.1125,-6.1265,0,-6.0676,-6.0794,-6.0781,-6.0893,-6.0946,-6.0907,-6.0967,-6.0992,-6.0996,-6.1041,-6.1045,-6.1096,-6.1047,-6.1061,-6.111,-6.1114,-6.1191,-6.1104,-6.1169,-6.1171,-6.116,-6.1341,-6.137,-6.1501,-6.1283,-6.1286,-6.1288,0,-6.0848,-6.0887,-6.1005,-6.1029,-6.1051,-6.1105,-6.1148,-6.1193,-6.1222,-6.122,-6.125,-6.1228,-6.1297,-6.1232,-6.1327,-6.1268,-6.1295,-6.1302,-6.1306,-6.1309,-6.1235,-6.1347,-6.1543,-6.1562,-6.1317,-6.1315,-6.1312,0,-6.0966,-6.1049,-6.1131,-6.1149,-6.1179,-6.1218,-6.1233,-6.1258,-6.1288,-6.1327,-6.1346,-6.1392,-6.1417,-6.1453,-6.1444,-6.1398,-6.1541,-6.1475,-6.1541,-6.1542,-6.157,-6.1568,-6.1771,-6.1592,-6.1592,-6.1592,-6.1591,0,-6.1117,-6.119,-6.1185,-6.1234,-6.1316,-6.1302,-6.1383,-6.1393,-6.1417,-6.1468,-6.1438,-6.1487,-6.1473,-6.1521,-6.1515,-6.1595,-6.1607,-6.1607,-6.1604,-6.1608,-6.1608,-6.1622,-6.1612,-6.1597,-6.1596,-6.1595,-6.1594,0,-6.1261,-6.126,-6.1346,-6.137,-6.1378,-6.1437,-6.1457,-6.1504,-6.1507,-6.1572,-6.1587,-6.1591,-6.1647,-6.1643,-6.1705,-6.1701,-6.1799,-6.1787,-6.1789,-6.1785,-6.1851,-6.1844,-6.2068,-6.2096,-6.1902,-6.1904,-6.1906,0,-6.1355,-6.1411,-6.1441,-6.1474,-6.1492,-6.1545,-6.1576,-6.1566,-6.1599,-6.1639,-6.1681,-6.1735,-6.1777,-6.1868,-6.1877,-6.1925,-6.1912,-6.1987,-6.1918,-6.1921,-6.191,-6.1906,-6.1911,-6.1999,-6.2001,-6.2003,-6.2005,0,-6.1521,-6.1519,-6.1566,-6.1614,-6.1652,-6.1689,-6.1722,-6.1751,-6.1744,-6.1784,-6.1842,-6.1875,-6.194,-6.1994,-6.2041,-6.2056,-6.2029,-6.2027,-6.2045,-6.2048,-6.2046,-6.2046,-6.1823,-6.2021,-6.2019,-6.2018,-6.2017,-6.2017,-6.1642,-6.169,-6.172,-6.1773,-6.1798,-6.1831,-6.1877,-6.1887,-6.1935,-6.1988,-6.1979,-6.2044,-6.2074,-6.2134,-6.2155,-6.2205,-6.2178,-6.2203,-6.2209,-6.2215,-6.2222,-6.2042,-6.2214,-6.2213,-6.2213,-6.2212,-6.2212,0,-6.1805,-6.1823,-6.1873,-6.1922,-6.1965,-6.1939,-6.1976,-6.2013,-6.207,-6.2101,-6.2144,-6.2211,-6.2264,-6.2278,-6.2329,-6.2367,-6.2356,-6.238,-6.2376,-6.238,-6.2244,-6.2223,-6.2388,-6.2388,-6.2388,-6.2388,-6.2388,-6.2388,-6.1895,-6.1975,-6.1977,-6.2071,-6.2088,-6.2152,-6.2175,-6.2205,-6.223,-6.2307,-6.2351,-6.2361,-6.2385,-6.2438,-6.2486,-6.2489,-6.2508,-6.2537,-6.2535,-6.2407,-6.2389,-6.2372,-6.2352,-6.2542,-6.2542,-6.2666,-6.2667,-6.2668]},{"header":{"parameterUnit":"m.s-1","parameterCategory":1,"la1":30.2991,"la2":30.254,"lo1":-89.0895,"lo2":-89.0444,"dy":0.0017,"dx":0.0017,"nx":28,"ny":28,"refTime":"2026-03-04T09:00:00:Z","depth":0,"parameterNumber":3,"parameterNumberName":"V-component_of_WINDS"},"data":[0,0,0,0,0,0,0,0,0,0,0,0,0,0,0,0,0,0,0,0,0,0,0,0,0,0,0,0,0,0,0,0,0,0,0,0,0,0,0,0,0,0,0,0,0,0,0,0,0,0,0,0,0,0,0,0,0,0,2.3759,2.3759,0,2.3775,2.3775,2.3775,2.3794,2.3794,2.3795,2.3795,2.3806,2.3806,2.3806,0,0,0,0,0,0,0,0,0,0,0,0,0,2.3745,2.3745,2.3759,2.3759,2.376,2.3775,2.3775,2.3775,2.3794,2.3794,2.3795,2.3795,2.3806,2.3806,2.3806,0,0,0,0,0,0,0,0,0,0,0,0,0,2.3754,2.3745,2.3759,2.3771,2.3772,2.3775,2.3775,2.3775,2.3794,2.3794,2.3795,2.3795,2.3806,2.3806,2.3806,2.3797,0,0,2.3806,2.3806,0,0,0,0,0,0,0,0,2.3754,2.3755,2.3769,2.377,2.3772,2.3783,2.3774,2.3782,2.3794,2.3785,2.3795,2.3795,2.3798,2.3799,2.38,2.3798,2.3798,2.3806,2.3806,2.3806,2.3806,0,0,0,0,0,0,0,2.3753,2.3754,2.3765,2.3769,2.3771,2.3775,2.3777,2.3776,2.3789,2.3786,2.3788,2.3789,2.3799,2.38,2.3801,2.3798,2.3806,2.3806,2.3807,2.3807,2.3793,2.3792,0,0,0,0,0,0,2.3751,2.3754,2.3765,2.3766,2.3764,2.3775,2.3777,2.3779,2.3789,2.3791,2.3789,2.379,2.38,2.3801,2.3801,2.3793,2.3806,2.3807,2.3807,2.3793,2.3792,2.3792,0,0,0,0,0,0,2.3751,2.3752,2.3764,2.376,2.3762,2.3775,2.3776,2.3779,2.378,2.3791,2.3793,2.3788,2.38,2.3801,2.3799,2.3794,2.3807,2.3807,2.3793,2.3793,2.3792,2.3776,0,0,0,0,0,0,2.375,2.3752,2.3748,2.376,2.3762,2.3762,2.3776,2.3779,2.3781,2.3783,2.3791,2.3793,2.3801,2.3799,2.3799,2.3794,2.3807,2.3794,2.3793,2.3792,2.3777,2.3775,2.3773,0,0,0,0,0,2.375,2.3741,2.3748,2.3749,2.3759,2.3762,2.3763,2.3773,2.378,2.3777,2.3785,2.3792,2.3795,2.3799,2.3799,2.3794,2.3794,2.3793,2.3792,2.3778,2.3775,2.3773,0,0,0,0,0,0,2.3726,2.3743,2.3751,2.3746,2.3753,2.3765,2.3761,2.377,2.3773,2.3775,2.3787,2.3788,2.3785,2.3789,2.3793,2.3787,2.3796,2.3795,2.3784,2.3782,2.378,2.3779,2.3807,0,0,0,0,0,2.3721,2.3723,2.3737,2.3732,2.3735,2.3748,2.3749,2.3758,2.3764,2.3766,2.3773,2.3779,2.3781,2.3782,2.3784,2.3778,2.3781,2.3775,2.3773,2.3771,2.377,2.377,2.3768,2.3789,2.3789,2.3789,0,0,2.3709,2.3719,2.3719,2.3728,2.3734,2.3736,2.375,2.375,2.3752,2.3766,2.3765,2.3771,2.3778,2.3775,2.3773,2.3778,2.3765,2.377,2.3769,2.3769,2.3769,2.3767,2.3765,2.3789,2.3789,2.3789,0,0,2.3689,2.3696,2.3694,2.3701,2.3711,2.372,2.372,2.3731,2.3736,2.3736,2.3748,2.375,2.3753,2.3758,2.3761,2.3747,2.3755,2.3748,2.3737,2.3736,2.3735,2.3733,2.373,2.3728,2.3747,2.3747,2.3747,0,2.3673,2.3677,2.3691,2.3692,2.3697,2.3713,2.3711,2.3716,2.3725,2.3728,2.3733,2.374,2.3745,2.3745,2.3742,2.3743,2.3744,2.3746,2.3734,2.3733,2.3732,2.3728,2.3727,2.3746,2.3746,2.3746,2.3746,0,2.3658,2.366,2.3657,2.3669,2.3673,2.3672,2.3686,2.3689,2.3697,2.3706,2.3707,2.3715,2.372,2.3721,2.3728,2.3722,2.3725,2.3732,2.3741,2.3729,2.3726,2.3725,2.3745,2.3745,2.3745,2.3745,0,0,2.3621,2.3643,2.3642,2.3649,2.3663,2.3665,2.3666,2.3674,2.3676,2.3683,2.3684,2.3688,2.3696,2.37,2.3708,2.3708,2.3699,2.3715,2.3716,2.3713,2.3695,2.3689,2.3688,2.3705,2.3704,2.3704,2.3694,0,2.3604,2.3608,2.3622,2.3622,2.3625,2.3643,2.3644,2.3652,2.3661,2.3665,2.3675,2.3678,2.3687,2.369,2.3691,2.37,2.3695,2.3701,2.3706,2.3706,2.3704,2.3686,2.368,2.367,2.3693,2.3693,2.3693,0,2.3583,2.3592,2.3593,2.361,2.3612,2.3613,2.3623,2.3626,2.3637,2.3644,2.365,2.3661,2.3663,2.3672,2.3676,2.368,2.3683,2.3688,2.3688,2.3689,2.3698,2.3687,2.3667,2.3665,2.3691,2.3691,2.3691,0,2.3558,2.357,2.3573,2.3578,2.3597,2.3598,2.3606,2.3618,2.3622,2.3631,2.3634,2.3642,2.3646,2.3652,2.3664,2.367,2.3668,2.3677,2.3673,2.3673,2.3671,2.3671,2.3652,2.3673,2.3673,2.3673,2.3673,0,2.3538,2.3538,2.3562,2.3564,2.3565,2.3582,2.3582,2.3592,2.3603,2.3607,2.3621,2.3624,2.3641,2.3646,2.3656,2.3659,2.366,2.3666,2.3669,2.3665,2.3664,2.3667,2.3668,2.3673,2.3673,2.3673,2.3673,0,2.3509,2.3525,2.353,2.3549,2.3554,2.3554,2.3571,2.3573,2.3585,2.3589,2.3592,2.3608,2.3616,2.363,2.364,2.3647,2.3648,2.3652,2.3644,2.3646,2.3642,2.3642,2.3624,2.3623,2.3644,2.3644,2.3644,0,2.3495,2.3496,2.3517,2.3522,2.353,2.3536,2.3543,2.356,2.3565,2.358,2.3581,2.359,2.3598,2.3609,2.3622,2.363,2.3635,2.3629,2.3636,2.3634,2.3636,2.3636,2.3637,2.3626,2.3626,2.3626,2.3626,0,2.3469,2.3478,2.3486,2.3499,2.3506,2.3516,2.3527,2.353,2.355,2.3555,2.3564,2.3571,2.3583,2.3592,2.3604,2.3611,2.3622,2.3623,2.3623,2.3619,2.3615,2.3619,2.364,2.3623,2.3624,2.3624,2.3624,2.3624,2.3447,2.345,2.3466,2.3476,2.3487,2.3498,2.3502,2.3515,2.3523,2.3536,2.3546,2.3555,2.3568,2.3585,2.3592,2.3599,2.3604,2.3603,2.3603,2.3603,2.3602,2.3615,2.3601,2.3601,2.3601,2.3601,2.3601,0,2.3423,2.3435,2.3444,2.3461,2.3469,2.3481,2.3494,2.35,2.3508,2.352,2.3529,2.3541,2.355,2.3565,2.3576,2.3579,2.3585,2.3581,2.3581,2.3583,2.3596,2.3596,2.3577,2.3577,2.3577,2.3577,2.3577,2.3577,2.3411,2.3417,2.3429,2.3441,2.3453,2.3463,2.347,2.348,2.3491,2.3503,2.3512,2.3523,2.3537,2.355,2.3559,2.3564,2.3567,2.3563,2.3568,2.358,2.3582,2.3584,2.3584,2.3563,2.3563,2.3555,2.3555,2.3555]}]]